Wind_Speed
73 71 70 67 62 61 57 48 40 46 56 50 51 55 49 46 45 44 41 45 40 32 35 31 30 31 33 33 31 27 25 23 23 22 20 18 19 15 16 16 14 12 12
74 74 72 68 63 61 56 50 43 47 49 50 50 50 46 47 45 43 43 42 30 32 31 28 30 30 33 32 28 28 25 24 22 23 23 22 20 17 17 17 17 16 15
73 72 71 69 67 63 57 49 48 48 51 52 49 47 44 47 44 45 41 34 30 32 26 29 29 31 32 30 28 28 25 25 25 26 25 22 19 19 18 18 18 17 17
74 72 69 66 64 62 58 51 48 47 51 53 49 41 42 43 44 41 36 33 31 25 27 28 29 32 31 28 28 27 27 27 27 27 27 25 21 20 19 19 20 21 21
73 72 70 66 63 62 58 53 51 49 48 50 48 42 41 43 42 36 36 30 25 26 26 27 30 30 28 27 28 28 30 30 30 29 29 29 26 22 21 19 19 23 24
74 68 70 69 64 62 57 54 52 51 45 43 41 40 42 40 38 34 30 28 26 26 25 27 30 28 27 27 29 31 32 33 33 33 32 28 26 24 20 18 14 14 21
73 68 64 68 65 63 60 55 53 49 44 40 39 39 38 37 33 30 28 26 25 25 26 29 28 27 27 28 30 30 27 29 29 28 26 25 25 26 20 19 16 15 20
72 69 64 66 64 62 60 56 51 44 40 42 39 37 36 34 27 30 27 25 25 25 27 27 27 25 26 27 25 20 21 18 17 18 21 23 21 20 18 18 21 19 18
60 64 63 64 63 61 59 53 46 43 40 41 37 37 35 29 29 28 26 26 24 26 26 27 25 23 24 22 18 14 12 11 11 7 15 23 19 19 17 20 21 16 16
57 63 63 62 62 58 56 52 46 40 40 36 39 37 30 29 28 26 27 24 26 25 27 24 22 21 21 17 14 12 12 10 14 14 16 15 14 17 17 19 21 21 21
55 61 64 64 61 59 53 45 42 39 37 41 38 33 30 27 26 27 25 26 25 25 22 21 19 19 16 13 12 9 6 4 9 9 17 17 16 17 18 19 20 21 20
43 52 55 56 53 48 45 43 41 40 41 37 33 31 27 28 27 26 26 25 24 23 20 20 17 17 13 12 11 9 6 5 6 9 14 17 16 17 18 19 20 19 19
38 42 49 50 49 46 43 41 40 40 36 35 32 28 26 26 26 26 25 24 24 22 21 19 17 16 14 12 10 10 8 6 7 7 10 13 15 16 17 19 20 19 20
30 33 41 40 42 42 41 41 40 38 37 29 26 26 27 26 25 25 24 24 23 23 22 19 17 14 14 12 11 11 11 11 8 7 8 11 14 15 17 19 20 19 21
29 36 36 38 38 40 42 43 41 38 34 30 29 28 26 24 23 22 23 24 24 24 21 19 16 14 13 12 11 11 12 10 7 5 5 6 8 14 19 19 19 19 20
26 31 31 40 44 44 47 44 37 32 28 25 24 22 22 22 22 23 22 22 22 20 19 18 16 13 11 11 13 13 12 11 11 8 4 6 6 9 18 19 20 19 18
31 29 24 40 44 43 43 34 28 24 24 24 23 21 19 17 17 17 18 20 21 19 18 16 16 13 10 11 13 15 13 12 12 10 7 3 5 7 13 16 18 17 18
30 27 26 37 48 42 35 31 29 27 26 23 20 17 15 16 14 13 12 15 17 17 16 15 15 12 11 12 13 15 14 12 11 10 8 5 5 6 11 12 11 17 16
28 27 30 42 39 37 33 28 25 24 21 18 17 16 16 17 14 13 11 12 13 14 15 14 13 11 11 11 12 13 13 12 11 10 9 9 7 8 8 7 9 11 15
41 44 41 37 34 30 27 26 22 18 16 17 16 16 17 16 14 12 14 15 15 15 14 14 12 12 11 11 11 11 11 11 12 11 10 10 9 10 10 11 12 12 13
41 39 37 33 30 27 23 18 16 16 17 17 17 17 15 12 11 12 13 14 15 16 15 13 11 10 10 10 9 10 10 10 10 9 9 9 9 10 12 14 15 16 17
34 33 31 28 24 20 16 15 17 19 19 18 15 11 9 8 9 10 11 12 13 14 13 12 12 10 9 10 11 10 11 11 10 10 10 10 11 10 10 11 12 14 15
30 28 25 21 19 18 19 22 22 21 17 13 10 7 7 7 8 10 12 12 12 11 11 11 11 9 7 8 9 12 12 13 13 11 10 9 9 10 12 12 11 11 12
27 25 22 20 20 22 25 23 20 16 13 11 9 7 6 5 7 9 10 11 11 10 10 9 9 8 7 7 8 8 9 9 9 9 7 5 5 7 8 10 11 12 13
26 23 22 23 25 25 22 19 16 14 12 9 7 8 9 8 8 9 10 10 10 9 9 8 8 8 8 8 7 6 6 6 5 5 6 7 5 6 6 7 8 9 11
25 24 24 24 22 21 19 18 16 14 11 9 8 9 12 11 11 11 12 14 14 13 12 11 10 10 9 8 9 9 9 8 10 11 9 8 9 9 11 13 14 16 18
Wind_Direction
237 239 242 244 243 246 249 247 241 245 254 253 256 262 263 267 273 276 285 285 280 275 277 280 289 292 292 294 290 282 285 277 284 286 287 288 276 266 251 245 236 240 234
233 236 237 241 242 244 246 247 242 244 243 245 250 256 259 265 272 279 285 281 272 273 275 284 286 290 288 291 284 282 285 277 280 281 280 279 275 261 251 243 238 237 231
230 231 234 236 239 242 243 242 242 241 244 245 247 252 257 264 272 278 281 271 270 271 279 281 286 288 288 287 281 285 282 274 276 274 275 273 271 259 250 242 235 235 237
228 227 228 231 234 238 240 239 240 239 240 244 247 251 255 264 270 274 272 268 265 273 278 282 288 287 287 281 283 284 279 274 272 269 269 268 268 255 246 242 236 233 234
226 223 223 225 227 232 234 234 236 237 239 242 247 250 255 263 267 268 266 260 264 275 279 287 287 285 284 282 286 283 280 277 272 266 263 264 262 247 241 240 240 241 231
223 221 218 219 220 226 229 230 233 236 240 242 240 245 253 260 262 264 256 258 271 275 281 284 281 287 282 284 285 283 286 282 274 269 267 247 249 233 234 228 229 208 205
217 217 215 215 217 222 227 226 230 235 238 238 238 244 252 255 256 252 247 261 270 274 280 279 285 285 286 287 286 292 288 286 277 262 257 242 228 221 224 217 220 208 198
211 211 209 209 212 218 224 225 228 232 233 233 237 243 249 248 245 244 255 265 267 274 275 282 285 288 287 286 291 291 295 290 278 252 241 226 209 208 210 214 210 214 217
203 203 202 203 208 214 221 225 226 231 232 231 236 242 242 239 240 243 259 263 268 270 273 283 285 287 285 288 283 289 284 290 252 233 216 210 194 207 209 216 222 222 216
178 189 192 197 206 213 219 223 224 228 227 230 233 234 232 234 239 252 258 262 263 269 274 283 282 281 284 281 274 282 277 293 229 196 200 203 212 213 221 218 221 220 221
176 181 187 198 204 210 216 220 224 225 222 226 229 227 227 232 245 252 256 259 262 266 276 279 275 279 277 266 273 267 261 272 198 188 209 211 218 216 221 227 221 220 224
174 183 191 199 206 212 216 219 224 219 219 221 220 221 225 238 246 250 254 254 259 263 272 274 265 272 264 257 266 250 231 207 220 209 213 220 225 228 219 220 220 219 217
169 182 191 198 203 207 214 219 216 210 213 212 215 221 233 239 244 248 250 252 255 261 268 265 260 264 256 247 249 241 224 198 186 196 212 216 219 219 217 215 212 216 215
168 180 188 194 205 209 210 205 200 203 205 209 218 228 232 237 242 247 252 253 254 260 261 253 254 259 247 239 234 231 226 230 241 252 243 235 233 224 218 216 212 212 214
172 176 185 193 202 199 197 195 194 196 200 209 218 223 231 238 246 251 251 254 256 254 251 241 247 253 247 237 228 226 223 220 226 241 235 227 233 224 218 216 215 212 212
184 196 193 196 197 199 195 191 188 194 202 210 219 226 233 241 249 256 255 251 247 242 237 235 242 247 248 230 224 220 221 220 220 220 224 227 248 238 211 212 210 217 217
203 206 218 207 178 202 187 180 188 196 204 213 218 226 232 243 245 249 248 240 231 231 226 231 238 239 249 227 221 220 221 224 227 221 225 257 214 218 207 201 212 220 221
206 210 212 209 181 172 176 183 187 196 204 210 218 226 231 226 230 241 244 222 211 211 218 233 235 232 245 227 220 218 221 228 220 219 218 214 189 181 187 187 205 216 219
184 196 195 166 169 171 176 183 189 196 205 211 220 221 222 221 230 232 221 203 199 208 221 229 223 226 238 228 218 214 217 221 216 216 222 211 203 193 195 200 217 217 222
149 152 161 165 166 170 178 184 190 199 206 215 215 218 216 221 232 234 221 217 215 220 218 211 208 219 227 225 218 214 210 206 206 216 221 221 223 225 227 237 246 247 245
150 156 160 164 169 172 178 183 194 205 210 208 200 202 208 221 230 223 215 207 210 208 200 199 204 206 214 215 207 204 207 210 215 223 226 235 234 235 234 239 245 250 254
154 158 161 161 166 172 170 177 180 175 173 179 184 191 203 212 202 194 196 194 196 191 190 192 195 198 197 199 202 200 207 215 217 225 233 243 250 250 249 261 255 253 255
159 158 157 160 163 163 165 164 163 166 169 169 171 180 195 195 189 184 173 169 169 173 179 187 197 204 212 210 198 205 211 217 227 235 242 251 255 249 251 252 250 238 242
157 158 154 159 165 167 167 166 165 160 161 163 163 160 141 158 183 179 180 185 187 187 189 188 189 190 188 189 196 210 219 222 225 234 233 235 255 263 264 268 274 271 265
161 159 164 169 168 167 166 164 158 155 156 156 165 167 148 141 146 160 168 168 166 165 170 176 179 187 197 194 188 183 185 191 209 235 246 270 293 284 276 276 269 270 268
167 166 171 170 169 167 164 164 164 165 166 163 158 161 149 149 143 139 141 138 137 138 141 142 144 144 146 154 163 172 177 178 182 225 244 247 249 252 260 267 271 274 278
Height
5678 5687 5695 5703 5713 5720 5728 5739 5748 5752 5755 5759 5762 5763 5764 5766 5765 5765 5764 5763 5761 5761 5762 5761 5758 5756 5755 5753 5750 5748 5746 5744 5743 5742 5742 5741 5740 5739 5739 5739 5740 5741 5743
5664 5673 5683 5690 5699 5706 5717 5728 5738 5741 5745 5748 5751 5752 5755 5756 5757 5756 5758 5754 5752 5754 5755 5752 5751 5749 5748 5745 5744 5742 5740 5738 5738 5737 5737 5737 5736 5736 5736 5736 5737 5738 5740
5648 5658 5667 5678 5686 5696 5706 5716 5725 5731 5735 5737 5740 5744 5746 5747 5748 5750 5749 5747 5747 5748 5747 5746 5743 5743 5741 5739 5737 5735 5734 5733 5731 5731 5731 5731 5731 5732 5732 5732 5733 5734 5736
5630 5643 5655 5667 5677 5686 5696 5706 5712 5719 5723 5727 5732 5736 5738 5739 5741 5743 5740 5741 5742 5741 5740 5738 5737 5736 5734 5732 5730 5728 5727 5726 5725 5725 5724 5725 5726 5727 5728 5728 5729 5730 5732
5610 5626 5642 5655 5666 5675 5685 5695 5701 5708 5713 5718 5723 5728 5729 5731 5734 5734 5734 5735 5735 5734 5733 5732 5731 5729 5727 5726 5723 5722 5720 5719 5718 5717 5717 5718 5719 5721 5722 5724 5724 5725 5728
5592 5611 5626 5639 5652 5663 5673 5683 5690 5696 5705 5711 5716 5718 5721 5724 5725 5725 5727 5728 5728 5727 5726 5725 5724 5722 5721 5719 5717 5715 5713 5710 5708 5708 5708 5709 5712 5714 5717 5719 5720 5720 5724
5577 5596 5612 5626 5639 5651 5661 5671 5680 5689 5697 5704 5706 5710 5714 5715 5717 5718 5720 5721 5721 5721 5720 5719 5718 5716 5715 5713 5710 5707 5703 5700 5698 5697 5699 5701 5704 5708 5712 5716 5718 5719 5723
5560 5581 5599 5614 5628 5640 5650 5662 5672 5681 5689 5694 5699 5702 5704 5707 5709 5713 5714 5714 5715 5714 5714 5713 5711 5710 5708 5706 5703 5700 5697 5693 5691 5690 5692 5695 5699 5704 5708 5711 5715 5717 5721
5548 5570 5590 5604 5619 5632 5643 5654 5665 5672 5680 5686 5691 5694 5697 5701 5704 5707 5707 5708 5708 5709 5708 5707 5706 5704 5703 5700 5697 5695 5693 5691 5689 5687 5689 5692 5698 5702 5705 5709 5711 5713 5717
5540 5562 5582 5600 5612 5625 5636 5647 5657 5665 5672 5678 5682 5686 5691 5695 5698 5699 5701 5701 5703 5703 5703 5702 5701 5700 5697 5695 5693 5692 5690 5688 5685 5686 5690 5693 5697 5700 5703 5705 5709 5712 5715
5544 5561 5579 5594 5607 5617 5630 5642 5651 5658 5665 5670 5676 5681 5685 5688 5690 5693 5694 5696 5698 5698 5697 5697 5697 5695 5693 5692 5691 5691 5690 5688 5687 5687 5690 5693 5696 5698 5700 5703 5706 5709 5712
5553 5568 5583 5595 5606 5618 5628 5637 5645 5652 5658 5665 5671 5676 5678 5681 5684 5687 5689 5691 5692 5693 5692 5692 5693 5691 5690 5689 5689 5689 5689 5688 5688 5688 5690 5692 5694 5696 5698 5700 5703 5707 5710
5559 5571 5581 5592 5603 5613 5623 5631 5638 5646 5654 5660 5665 5669 5672 5675 5678 5681 5683 5685 5686 5687 5687 5688 5688 5687 5687 5687 5687 5687 5688 5687 5688 5688 5689 5690 5692 5694 5695 5697 5700 5704 5708
5561 5571 5582 5592 5602 5611 5618 5625 5634 5642 5649 5655 5660 5663 5666 5670 5673 5676 5677 5679 5680 5681 5682 5683 5684 5684 5683 5684 5685 5685 5686 5686 5687 5687 5687 5687 5689 5690 5692 5694 5697 5701 5705
5563 5573 5582 5590 5598 5607 5614 5621 5629 5637 5644 5648 5653 5657 5662 5666 5669 5670 5671 5672 5674 5675 5676 5678 5680 5680 5680 5681 5682 5683 5684 5684 5685 5685 5685 5685 5686 5687 5689 5692 5696 5699 5702
5565 5573 5580 5585 5594 5604 5612 5618 5627 5634 5640 5646 5651 5655 5658 5661 5662 5664 5665 5666 5667 5669 5672 5674 5676 5677 5678 5679 5680 5681 5681 5682 5683 5683 5683 5684 5684 5684 5686 5689 5694 5697 5700
5564 5571 5577 5578 5592 5601 5611 5619 5625 5632 5638 5644 5648 5651 5654 5656 5658 5658 5659 5660 5662 5664 5667 5670 5673 5674 5674 5675 5677 5678 5679 5680 5680 5682 5682 5682 5683 5683 5685 5688 5691 5695 5697
5560 5568 5577 5586 5594 5602 5610 5618 5624 5630 5636 5641 5645 5648 5650 5652 5654 5654 5654 5655 5657 5661 5664 5667 5669 5671 5671 5672 5673 5674 5676 5677 5679 5680 5681 5681 5682 5683 5685 5687 5690 5692 5694
5556 5565 5575 5586 5595 5603 5611 5618 5623 5629 5635 5638 5641 5644 5647 5649 5651 5651 5652 5653 5655 5658 5661 5663 5665 5667 5668 5669 5671 5672 5673 5675 5677 5678 5679 5680 5681 5683 5684 5686 5688 5690 5692
5557 5572 5582 5592 5599 5605 5612 5618 5622 5627 5631 5635 5639 5642 5644 5646 5647 5648 5649 5651 5653 5655 5658 5660 5662 5664 5666 5667 5669 5670 5672 5673 5674 5676 5677 5679 5680 5682 5684 5685 5686 5688 5690
5571 5579 5588 5595 5602 5607 5612 5616 5621 5625 5629 5633 5636 5639 5641 5642 5644 5644 5645 5648 5650 5653 5655 5658 5661 5662 5664 5665 5667 5669 5671 5672 5673 5675 5676 5678 5679 5680 5681 5682 5682 5684 5685
5577 5584 5591 5597 5603 5608 5611 5615 5620 5624 5628 5631 5634 5636 5638 5640 5641 5642 5644 5646 5649 5652 5655 5657 5659 5661 5662 5664 5665 5667 5669 5670 5672 5673 5674 5675 5676 5677 5678 5678 5678 5679 5680
5582 5588 5594 5599 5603 5608 5613 5617 5621 5624 5627 5630 5632 5634 5637 5638 5640 5642 5644 5646 5649 5652 5654 5656 5658 5659 5661 5663 5664 5666 5667 5669 5670 5672 5673 5674 5674 5675 5675 5675 5676 5675 5676
5585 5591 5595 5601 5606 5610 5613 5617 5620 5623 5626 5629 5632 5634 5636 5638 5640 5642 5644 5646 5649 5651 5653 5655 5657 5658 5660 5662 5663 5664 5666 5668 5669 5670 5671 5672 5672 5672 5673 5673 5674 5674 5673
5588 5593 5599 5604 5608 5611 5614 5617 5619 5623 5626 5629 5633 5635 5637 5639 5640 5642 5644 5646 5649 5651 5653 5655 5656 5657 5659 5660 5662 5663 5665 5666 5667 5668 5669 5669 5670 5670 5670 5670 5670 5670 5670
5591 5597 5602 5605 5608 5611 5614 5617 5620 5624 5627 5630 5633 5637 5638 5640 5642 5644 5646 5647 5649 5651 5653 5655 5656 5657 5658 5659 5660 5661 5662 5664 5665 5666 5666 5666 5666 5667 5666 5666 5666 5665 5665